Wind_Speed
25 27 41 36 30 34 32 33 31 26 23 30 28 27 28 26 24 22 22 21 21 24 26 30 30 34 35 32 36 31 33 29 26 20 18 17 16 17 17 18 18 16 15 15
31 43 42 31 31 34 34 36 38 32 27 27 28 33 28 27 29 29 30 29 25 25 25 27 33 43 42 41 37 35 35 33 30 24 22 20 20 21 18 18 17 17 16 16
46 51 35 33 36 37 38 40 35 35 29 33 32 43 37 34 32 33 35 34 30 29 28 29 31 44 39 44 42 40 37 35 32 30 28 25 22 20 21 19 18 18 18 18
45 43 42 35 40 39 43 37 33 34 31 41 30 37 37 33 32 32 32 33 35 32 28 30 34 43 35 39 46 42 40 38 36 34 32 28 25 23 24 24 21 20 20 21
45 46 40 43 45 35 48 32 34 33 35 33 44 36 38 32 39 37 32 31 29 28 29 29 34 37 34 36 45 44 42 40 40 36 34 30 30 27 27 27 24 23 22 23
34 47 41 42 43 41 35 32 26 29 30 25 50 33 57 41 41 37 32 31 33 32 28 27 32 34 38 36 43 44 43 42 42 37 37 33 34 32 29 29 26 26 25 26
48 50 49 37 37 38 38 34 27 23 22 23 39 31 63 10 12 23 29 32 28 28 30 28 27 33 41 40 43 42 43 43 41 39 39 37 37 33 31 29 29 28 27 27
45 40 47 55 52 43 45 44 26 21 20 24 40 38 71 40 36 32 28 22 33 27 29 29 27 31 40 43 46 43 44 44 41 41 39 40 35 35 32 30 30 29 29 29
42 54 40 45 49 43 43 49 53 38 29 18 33 37 46 35 36 26 24 25 32 27 26 30 29 30 39 47 47 49 46 46 44 43 41 42 38 36 33 32 31 31 31 31
54 43 41 47 42 52 47 40 40 35 20 28 39 45 53 36 39 36 29 24 23 25 26 30 31 29 43 50 46 43 46 46 44 45 43 39 42 36 36 33 33 33 33 34
46 50 51 38 44 50 44 49 48 43 37 18 21 34 49 51 43 38 29 25 24 25 25 32 33 30 38 42 46 43 44 46 45 45 42 42 36 39 36 34 35 35 35 35
41 39 45 58 42 35 52 47 50 32 42 51 38 45 45 24 22 17 20 22 22 21 24 34 29 31 32 31 33 39 42 43 46 45 43 37 43 38 35 36 36 36 37 37
22 38 39 47 43 53 43 49 55 53 44 40 25 49 33 40 35 26 23 23 29 28 25 30 28 29 30 32 34 35 37 42 43 44 41 42 41 40 39 38 38 37 37 38
34 40 33 33 47 42 52 47 51 51 46 47 48 62 58 28 13 17 23 27 26 30 30 27 32 30 28 30 31 36 37 40 42 43 43 42 40 41 40 40 39 39 40 39
31 41 42 41 43 47 45 58 51 53 55 48 61 65 59 38 31 24 26 28 27 29 29 25 26 26 26 31 32 34 37 38 42 44 43 42 43 42 41 40 41 41 39 39
37 30 36 44 46 50 54 56 50 52 49 58 62 61 61 42 39 42 39 33 34 39 36 36 38 32 37 38 38 36 36 38 43 44 45 44 43 43 42 42 42 40 39 38
36 42 33 33 47 51 51 53 53 55 52 57 63 77 46 46 41 45 39 30 35 37 38 42 42 44 36 35 34 30 27 32 39 43 45 42 43 44 44 44 42 39 40 38
40 37 37 28 34 34 41 48 53 55 59 59 63 69 52 47 44 43 43 42 43 44 42 41 38 33 33 34 33 31 31 31 38 44 44 43 45 45 45 43 40 42 40 36
37 38 32 14 29 31 32 45 45 54 65 66 66 66 48 43 38 46 43 41 41 42 42 44 39 37 40 40 38 37 37 37 39 44 43 44 46 46 44 42 42 42 36 26
32 35 37 36 11 14 48 51 38 34 42 49 54 57 48 47 55 69 45 36 41 38 38 33 43 47 47 44 43 43 41 39 41 40 43 47 47 45 45 42 38 33 28 19
29 27 30 38 20 24 47 39 36 46 30 20 36 48 45 44 44 32 36 44 40 38 36 33 37 44 42 45 45 45 41 42 40 39 45 47 46 46 41 39 32 28 17 21
38 31 29 26 27 25 33 34 35 50 44 40 27 12 24 29 29 29 30 38 36 39 36 37 43 48 44 43 41 42 39 34 33 41 45 47 45 43 40 33 26 16 20 21
37 37 43 32 37 35 17 17 25 25 34 29 27 27 22 23 26 24 24 25 32 36 42 44 43 41 43 39 36 38 40 39 42 44 48 46 44 39 36 24 17 18 21 20
39 37 38 46 47 54 31 28 37 32 35 41 32 29 30 28 31 27 26 24 27 32 39 41 40 40 43 45 42 43 42 44 45 50 50 44 42 37 26 22 16 20 21 20
34 26 30 45 51 33 40 49 27 29 34 35 30 30 35 28 25 26 26 26 27 22 22 23 26 31 35 38 41 38 39 42 47 52 44 42 38 29 15 16 20 22 21 19
36 42 40 56 38 33 38 40 42 41 33 40 37 34 33 25 22 28 28 27 27 30 33 31 29 29 31 35 34 35 37 42 46 45 39 33 23 15 14 19 23 23 21 20
Wind_Direction
227 228 233 232 236 242 248 251 254 255 254 253 250 253 252 252 250 255 254 249 249 242 243 239 241 226 234 223 240 242 240 239 239 237 227 230 239 249 259 270 261 252 246 243
220 231 236 236 236 243 245 250 252 258 253 258 255 257 255 250 248 252 256 254 249 250 250 240 232 243 238 235 242 241 238 237 235 237 234 236 243 250 259 267 264 254 250 255
225 237 239 231 236 240 243 244 252 254 258 259 261 263 258 253 252 253 250 250 248 249 249 243 231 244 247 236 241 238 237 236 236 236 238 241 246 256 258 264 262 250 249 253
232 240 235 239 239 235 244 244 250 254 255 259 258 268 258 257 255 254 256 250 245 245 244 243 237 239 250 239 237 235 237 235 238 238 242 246 250 253 256 256 257 252 249 252
230 235 235 237 239 237 243 247 249 253 254 262 261 260 264 258 255 251 249 249 250 240 241 241 235 236 251 245 237 235 234 237 239 239 242 244 244 250 256 254 256 254 254 256
236 231 235 239 243 241 244 244 247 246 247 249 254 256 274 260 257 254 250 248 247 247 241 239 235 229 246 245 235 233 231 236 240 240 241 242 243 249 252 252 255 254 254 259
234 237 229 232 243 236 231 231 238 234 236 240 254 249 256 253 247 251 250 246 240 244 242 234 239 225 236 239 230 228 230 236 238 238 239 241 242 248 245 249 252 254 257 263
227 238 228 218 229 231 225 222 218 222 232 249 255 239 253 254 266 261 237 241 233 242 246 237 238 226 229 238 231 230 230 234 236 237 238 240 243 246 249 251 254 254 257 263
234 238 239 234 228 231 231 224 227 239 263 274 261 255 262 257 252 245 240 241 257 246 241 245 236 224 224 237 238 235 235 235 237 239 240 243 238 242 244 253 253 256 260 266
238 257 240 239 239 233 228 226 230 229 242 249 258 256 257 255 252 247 234 239 244 238 237 239 233 223 223 238 237 234 233 236 239 240 240 231 239 241 247 250 252 255 260 265
239 243 253 251 238 224 222 229 234 233 222 238 247 261 262 254 255 256 233 233 252 235 237 237 244 225 238 245 238 234 237 238 238 240 238 239 238 239 247 247 250 253 259 267
236 242 244 246 238 242 229 226 227 219 220 229 245 269 247 265 270 262 236 232 227 231 233 245 244 238 242 250 246 238 239 240 241 240 235 237 227 245 246 248 251 255 261 267
251 241 243 254 246 244 244 229 229 228 228 230 230 250 274 260 252 250 243 236 238 254 248 256 235 232 244 250 245 241 239 239 241 239 237 231 239 235 246 247 250 256 263 267
251 254 243 241 238 235 232 233 233 229 229 235 235 248 244 252 253 234 235 238 247 249 250 244 238 238 246 249 251 243 238 239 237 237 233 236 235 240 243 246 252 256 260 268
254 255 254 256 251 244 240 232 232 233 229 235 239 240 248 248 252 243 260 252 245 243 237 240 244 244 259 254 258 249 240 237 237 237 235 234 236 240 242 246 250 254 262 270
267 264 251 251 247 243 243 243 240 236 235 237 243 248 253 254 253 256 255 257 245 250 244 252 251 255 270 262 256 247 243 239 235 235 234 235 237 239 241 245 250 256 265 273
262 261 267 249 239 242 244 239 242 241 237 238 243 247 254 256 253 248 254 258 246 249 252 252 252 266 264 256 245 237 247 245 241 236 236 236 236 238 240 245 251 260 265 275
270 276 281 285 272 240 243 237 237 244 244 242 247 254 256 254 256 254 252 248 255 251 250 256 251 246 253 249 234 244 251 252 244 238 238 235 235 237 241 247 254 261 270 284
256 268 278 242 268 263 247 239 233 233 243 240 246 250 251 252 257 254 251 247 251 253 261 247 246 250 247 248 249 254 253 250 242 238 238 235 235 237 243 250 256 264 277 293
250 251 239 280 266 290 247 243 238 240 248 248 245 249 252 253 253 251 246 247 246 248 247 239 245 245 244 245 248 250 249 251 245 240 235 233 235 239 245 254 260 275 289 275
252 249 245 256 242 259 266 277 247 234 234 233 245 251 248 238 246 265 256 249 244 238 239 242 232 238 241 245 243 245 248 249 248 236 233 237 240 243 249 251 264 282 272 268
250 251 246 254 252 270 268 280 269 230 242 245 274 244 232 233 242 247 245 241 236 229 237 230 229 238 245 242 244 243 249 249 243 241 243 242 242 243 249 255 269 270 260 263
255 251 251 243 250 256 260 253 260 244 224 247 253 247 246 243 242 247 253 257 244 235 236 232 239 243 239 242 242 240 240 238 240 239 235 236 237 241 245 262 267 253 257 258
254 260 267 273 256 253 249 260 252 246 244 241 246 248 246 259 251 249 256 249 245 243 238 237 237 236 234 234 233 232 236 232 228 228 229 231 238 243 245 275 248 256 253 250
251 254 267 267 261 252 249 240 233 272 259 247 240 253 253 242 245 243 249 247 243 240 239 234 235 233 235 236 234 237 228 224 225 228 227 229 237 255 251 241 249 248 244 245
243 257 265 271 269 257 257 262 262 264 261 257 259 246 245 241 251 252 251 249 248 246 243 240 232 226 228 233 234 232 228 226 228 232 233 238 251 254 237 244 245 242 241 245
Height
3117 3123 3116 3121 3125 3129 3128 3126 3125 3127 3130 3129 3129 3130 3130 3130 3130 3130 3129 3129 3130 3130 3132 3134 3133 3133 3132 3134 3132 3134 3137 3139 3141 3142 3143 3144 3145 3145 3146 3146 3145 3145 3146 3146
3116 3104 3110 3119 3121 3123 3122 3121 3118 3123 3125 3124 3123 3121 3123 3123 3123 3124 3123 3122 3122 3123 3124 3125 3127 3122 3124 3125 3127 3128 3130 3132 3135 3138 3139 3140 3140 3141 3142 3142 3142 3142 3142 3143
3099 3092 3109 3112 3112 3114 3114 3112 3116 3117 3120 3116 3117 3107 3112 3114 3114 3114 3113 3114 3115 3115 3116 3117 3117 3112 3115 3118 3120 3121 3124 3126 3130 3132 3133 3135 3135 3136 3137 3137 3137 3138 3138 3139
3094 3096 3098 3102 3102 3107 3104 3110 3112 3112 3113 3103 3114 3087 3098 3102 3101 3102 3104 3105 3106 3106 3107 3109 3109 3105 3105 3109 3111 3115 3116 3120 3122 3125 3127 3129 3131 3131 3131 3132 3133 3133 3134 3134
3081 3089 3091 3092 3090 3099 3091 3108 3106 3106 3104 3104 3094 3098 3087 3093 3091 3094 3096 3097 3097 3098 3099 3100 3100 3099 3097 3099 3101 3106 3109 3112 3114 3118 3120 3123 3124 3125 3125 3126 3127 3128 3128 3128
3075 3078 3082 3083 3088 3092 3095 3099 3100 3098 3098 3094 3073 3092 3058 3079 3079 3082 3085 3088 3090 3091 3091 3091 3093 3093 3088 3089 3092 3096 3102 3105 3106 3111 3113 3116 3116 3116 3119 3120 3121 3122 3122 3123
3063 3061 3066 3078 3080 3082 3085 3090 3088 3088 3083 3067 3076 3080 3045 3068 3071 3074 3076 3077 3080 3084 3084 3084 3083 3083 3079 3081 3084 3089 3093 3096 3100 3103 3105 3108 3109 3111 3113 3113 3114 3115 3116 3117
3055 3053 3053 3054 3060 3068 3070 3077 3077 3070 3065 3064 3062 3063 3023 3063 3065 3065 3067 3070 3072 3076 3076 3075 3075 3076 3073 3073 3076 3081 3085 3088 3092 3095 3098 3100 3102 3103 3105 3107 3108 3109 3109 3109
3044 3036 3049 3050 3053 3063 3061 3060 3059 3067 3063 3062 3049 3047 3042 3054 3055 3056 3059 3063 3063 3065 3069 3068 3067 3068 3067 3063 3067 3074 3077 3081 3085 3088 3090 3093 3095 3097 3099 3099 3101 3102 3103 3103
3036 3036 3038 3042 3047 3047 3050 3060 3061 3059 3060 3052 3039 3035 3025 3046 3046 3046 3048 3051 3053 3057 3060 3060 3057 3059 3058 3054 3059 3064 3070 3073 3077 3079 3083 3086 3088 3089 3092 3093 3094 3096 3096 3097
3034 3036 3028 3035 3029 3034 3042 3044 3047 3051 3051 3043 3036 3016 3027 3032 3036 3039 3037 3043 3045 3048 3051 3050 3047 3048 3047 3046 3050 3057 3061 3063 3068 3071 3074 3077 3079 3082 3085 3086 3087 3089 3090 3090
3026 3024 3022 3016 3023 3026 3027 3031 3036 3033 3035 3027 3034 3013 3020 3026 3029 3031 3033 3036 3037 3039 3042 3040 3039 3039 3039 3042 3045 3049 3052 3057 3059 3063 3065 3068 3071 3074 3077 3079 3082 3083 3083 3082
3016 3012 3016 3008 3016 3014 3017 3021 3019 3021 3027 3023 3024 3004 3017 3014 3022 3025 3028 3030 3030 3031 3032 3031 3032 3032 3034 3035 3037 3039 3043 3046 3050 3053 3056 3061 3063 3067 3070 3071 3073 3074 3075 3075
3006 3005 3002 2997 2998 3004 3008 3009 3011 3015 3012 3012 3006 2996 3004 3012 3017 3019 3020 3022 3022 3023 3024 3024 3025 3026 3027 3028 3029 3031 3034 3036 3041 3045 3049 3052 3056 3058 3061 3063 3065 3066 3066 3067
3000 2995 2997 2994 2994 2995 2994 2997 3000 3000 3001 2999 2992 2990 2993 3009 3013 3014 3013 3014 3015 3016 3016 3017 3019 3020 3021 3021 3022 3022 3024 3028 3032 3036 3040 3044 3047 3050 3053 3055 3056 3057 3059 3059
2992 2974 2987 2985 2984 2984 2984 2985 2987 2989 2990 2990 2985 2983 2983 3003 3005 3006 3009 3004 3006 3007 3009 3011 3011 3012 3012 3012 3013 3014 3016 3018 3021 3026 3031 3036 3039 3042 3044 3046 3048 3050 3051 3051
2985 2983 2976 2965 2972 2972 2965 2973 2976 2979 2978 2981 2976 2955 2996 2989 2993 2994 2998 3000 2994 2998 3000 3001 3002 3003 3003 3003 3004 3006 3009 3011 3013 3017 3020 3026 3031 3033 3036 3037 3040 3042 3042 3041
2976 2976 2973 2968 2966 2950 2953 2958 2962 2966 2968 2969 2964 2954 2978 2978 2982 2984 2985 2988 2984 2988 2990 2992 2993 2993 2995 2995 2996 2998 3000 3002 3005 3008 3012 3018 3022 3024 3026 3029 3031 3032 3031 3032
2973 2970 2968 2963 2957 2945 2945 2947 2949 2948 2941 2950 2954 2949 2964 2968 2972 2965 2972 2977 2978 2975 2979 2981 2983 2983 2984 2986 2989 2990 2992 2994 2996 2999 3004 3009 3013 3015 3018 3020 3021 3021 3023 3025
2959 2958 2961 2959 2952 2942 2923 2931 2945 2948 2934 2938 2944 2941 2949 2956 2959 2940 2962 2965 2967 2968 2968 2971 2969 2972 2973 2976 2979 2980 2983 2986 2986 2991 2997 3000 3003 3005 3008 3011 3013 3016 3017 3018
2950 2951 2949 2945 2940 2934 2926 2930 2935 2930 2925 2928 2930 2927 2934 2939 2938 2942 2946 2950 2955 2958 2960 2961 2959 2958 2965 2965 2969 2970 2974 2976 2979 2985 2988 2989 2993 2997 3001 3004 3007 3009 3010 3011
2938 2941 2938 2937 2938 2927 2918 2925 2916 2917 2927 2924 2925 2922 2925 2929 2932 2932 2934 2936 2940 2945 2947 2949 2948 2949 2954 2955 2958 2961 2966 2969 2973 2975 2979 2983 2986 2990 2993 2996 2999 3001 3004 3005
2925 2928 2925 2927 2916 2918 2917 2917 2916 2916 2917 2918 2919 2922 2924 2923 2924 2924 2926 2927 2929 2931 2934 2936 2938 2940 2943 2948 2950 2952 2956 2960 2963 2968 2971 2975 2978 2982 2985 2989 2992 2996 2998 2998
2916 2917 2912 2914 2902 2905 2911 2912 2911 2909 2909 2910 2912 2913 2914 2915 2916 2917 2919 2920 2920 2920 2923 2926 2928 2930 2934 2937 2940 2943 2948 2952 2956 2958 2961 2967 2970 2975 2979 2983 2987 2990 2991 2991
2906 2909 2905 2900 2896 2897 2898 2901 2905 2905 2903 2904 2904 2905 2906 2907 2907 2907 2910 2911 2913 2914 2915 2918 2920 2923 2926 2929 2931 2936 2940 2944 2947 2949 2955 2959 2964 2970 2974 2978 2981 2983 2984 2986
2896 2893 2896 2884 2891 2891 2889 2895 2896 2894 2895 2895 2895 2898 2899 2898 2899 2901 2904 2906 2907 2910 2911 2913 2915 2916 2918 2919 2924 2928 2932 2937 2941 2946 2951 2956 2960 2964 2969 2973 2975 2976 2978 2979